CW1621 Weather Reports


Display with metric or nautical units.
time (UTC)temp
F
wind
direction
speed
MPH
gust
MPH
rain 1hr
in
rain 24hr
in
rain mn
in
humidity
%
barometer
mb
20180723071603 53 336 0.0 0.0 0.00 0.00 0.00 56 1023.0
20180723071104 53 336 0.0 0.0 0.00 0.00 0.00 56 1023.4
20180723070604 52 336 0.0 0.0 0.00 0.00 0.00 57 1023.6
20180723070104 52 336 0.0 0.0 0.00 0.00 0.00 57 1023.6
20180723064604 54 336 0.0 0.0 0.00 0.00 0.00 54 1023.3
20180723064103 55 336 0.0 0.0 0.00 0.00 0.00 53 1023.1
20180723063603 55 336 0.0 0.0 0.00 0.00 0.00 54 1023.1
20180723063103 55 336 0.0 0.0 0.00 0.00 0.00 54 1023.2
20180723061603 54 336 0.0 0.0 0.00 0.00 0.00 56 1023.4
20180723061103 54 336 0.0 0.0 0.00 0.00 0.00 55 1023.4
20180723060603 55 336 0.0 0.0 0.00 0.00 0.00 55 1023.5
20180723060104 55 336 0.0 2.0 0.00 0.00 0.00 54 1023.5
20180723054603 56 336 0.0 0.0 0.00 0.00 0.00 51 1023.3
20180723054104 58 336 0.0 0.0 0.00 0.00 0.00 50 1023.0
20180723053603 59 336 0.0 0.0 0.00 0.00 0.00 46 1023.1
20180723053103 60 336 0.0 1.0 0.00 0.00 0.00 45 1022.9
20180723051603 59 293 0.0 0.0 0.00 0.00 0.00 46 1023.1
20180723051103 58 291 0.0 1.0 0.00 0.00 0.00 47 1023.3
20180723050604 58 312 0.0 1.0 0.00 0.00 0.00 49 1023.3
20180723050103 58 316 0.0 0.0 0.00 0.00 0.00 48 1023.3
20180723044604 59 316 0.0 3.0 0.00 0.00 0.00 50 1023.0
20180723044103 61 316 1.0 3.0 0.00 0.00 0.00 48 1022.7
20180723043603 62 316 0.0 0.0 0.00 0.00 0.00 46 1022.8
20180723043103 62 316 0.0 0.0 0.00 0.00 0.00 44 1022.5
20180723041603 65 315 0.0 0.0 0.00 0.00 0.00 42 1022.1
20180723041103 64 313 0.0 0.0 0.00 0.00 0.00 40 1022.7
20180723040603 64 311 0.0 1.0 0.00 0.00 0.00 43 1022.6
20180723040104 64 288 0.0 0.0 0.00 0.00 0.00 44 1022.5
20180723034603 70 288 0.0 0.0 0.00 0.00 0.00 31 1021.8
20180723034104 70 288 0.0 0.0 0.00 0.00 0.00 30 1021.8
20180723033603 70 329 0.0 0.0 0.00 0.00 0.00 29 1021.8
20180723033103 71 329 0.0 0.0 0.00 0.00 0.00 29 1021.6
20180723031604 72 329 0.0 0.0 0.00 0.00 0.00 28 1021.6
20180723031103 72 329 0.0 0.0 0.00 0.00 0.00 28 1022.1
20180723030604 73 329 0.0 0.0 0.00 0.00 0.00 28 1022.2
20180723030105 73 329 0.0 0.0 0.00 0.00 0.00 29 1022.1
20180723024604 73 329 0.0 0.0 0.00 0.00 0.00 30 1022.1
20180723024104 74 329 0.0 0.0 0.00 0.00 0.00 30 1021.9
20180723023603 74 329 0.0 0.0 0.00 0.00 0.00 30 1021.9
20180723023103 75 329 0.0 0.0 0.00 0.00 0.00 30 1021.8
20180723021604 76 3 0.0 2.0 0.00 0.00 0.00 25 1021.7
20180723021109 76 3 0.0 1.0 0.00 0.00 0.00 25 1022.6
20180723020604 77 3 0.0 2.0 0.00 0.00 0.00 25 1022.6
20180723020104 77 3 0.0 2.0 0.00 0.00 0.00 25 1022.7
20180723014604 78 3 1.0 5.0 0.00 0.00 0.00 23 1022.4
20180723014103 79 342 0.0 2.0 0.00 0.00 0.00 23 1022.5
20180723013603 79 345 0.0 0.0 0.00 0.00 0.00 23 1022.4
20180723013103 79 345 0.0 6.0 0.00 0.00 0.00 23 1022.4
20180723011603 80 315 2.0 7.0 0.00 0.00 0.00 22 1022.1
20180723011104 80 353 1.0 7.0 0.00 0.00 0.00 22 1023.1
20180723010604 81 349 1.0 6.0 0.00 0.00 0.00 21 1023.2
20180723010104 82 340 0.0 3.0 0.00 0.00 0.00 21 1023.0
20180723004604 81 340 0.0 5.0 0.00 0.00 0.00 23 1023.3
20180723004103 81 299 0.0 3.0 0.00 0.00 0.00 23 1023.3
20180723003603 80 299 0.0 3.0 0.00 0.00 0.00 23 1023.4
20180723003103 80 299 0.0 6.0 0.00 0.00 0.00 21 1023.5
20180723001603 81 294 1.0 5.0 0.00 0.00 0.00 22 1023.6
20180723001103 80 284 0.0 3.0 0.00 0.00 0.00 22 1023.9
20180723000603 80 285 1.0 7.0 0.00 0.00 0.00 20 1023.9
20180723000101 82 326 0.0 10.0 0.00 0.00 0.00 21 1023.6
20180722234601 81 331 1.0 5.0 0.00 0.00 0.00 22 1024.0
20180722234100 80 355 0.0 3.0 0.00 0.00 0.00 23 1024.1
20180722233600 79 327 2.0 5.0 0.00 0.00 0.00 23 1024.4
20180722233101 78 11 4.0 12.0 0.00 0.00 0.00 23 1024.4
20180722231601 79 7 0.0 3.0 0.00 0.00 0.00 23 1024.5
20180722231101 78 355 2.0 9.0 0.00 0.00 0.00 24 1024.8
20180722230601 79 269 0.0 7.0 0.00 0.00 0.00 22 1024.5
20180722230101 80 8 1.0 9.0 0.00 0.00 0.00 23 1024.5
20180722224601 81 331 1.0 5.0 0.00 0.00 0.00 23 1024.3
20180722224101 81 331 2.0 9.0 0.00 0.00 0.00 23 1024.4
20180722223601 81 310 2.0 9.0 0.00 0.00 0.00 23 1024.4
20180722223101 82 17 1.0 10.0 0.00 0.00 0.00 23 1024.4
20180722221601 80 344 2.0 6.0 0.00 0.00 0.00 24 1024.6
20180722221101 80 19 1.0 6.0 0.00 0.00 0.00 25 1024.3
20180722220601 79 19 3.0 12.0 0.00 0.00 0.00 24 1024.5
20180722220101 78 28 4.0 12.0 0.00 0.00 0.00 26 1024.4
20180722214602 76 58 5.0 7.0 0.00 0.00 0.00 26 1024.7
20180722214101 76 53 0.0 2.0 0.00 0.00 0.00 26 1024.7
20180722213601 76 53 4.0 12.0 0.00 0.00 0.00 25 1024.8
20180722213101 76 286 3.0 12.0 0.00 0.00 0.00 24 1024.7
20180722211601 78 43 6.0 12.0 0.00 0.00 0.00 24 1024.7
20180722211101 78 76 2.0 5.0 0.00 0.00 0.00 24 1024.9
20180722210602 78 10 3.0 9.0 0.00 0.00 0.00 25 1024.9
20180722210101 78 36 2.0 12.0 0.00 0.00 0.00 25 1024.9
20180722204601 78 10 10.0 14.0 0.00 0.00 0.00 25 1025.0
20180722204101 77 10 5.0 12.0 0.00 0.00 0.00 27 1025.3
20180722203601 75 147 0.0 3.0 0.00 0.00 0.00 27 1025.5
20180722203101 75 146 0.0 5.0 0.00 0.00 0.00 26 1025.5
20180722201601 75 61 3.0 12.0 0.00 0.00 0.00 26 1025.7
20180722201101 75 45 2.0 8.0 0.00 0.00 0.00 28 1025.4
20180722200601 74 148 2.0 6.0 0.00 0.00 0.00 27 1025.4
20180722200101 74 113 5.0 12.0 0.00 0.00 0.00 27 1025.4
20180722194601 77 345 2.0 9.0 0.00 0.00 0.00 27 1025.2
20180722194101 76 320 4.0 12.0 0.00 0.00 0.00 27 1025.2
20180722193601 75 29 3.0 7.0 0.00 0.00 0.00 28 1025.5
20180722193101 75 68 7.0 12.0 0.00 0.00 0.00 27 1025.4
20180722191602 74 9 5.0 9.0 0.00 0.00 0.00 30 1025.7
20180722191102 73 130 1.0 3.0 0.00 0.00 0.00 30 1025.3
20180722190601 73 124 6.0 12.0 0.00 0.00 0.00 29 1025.3
20180722190101 74 59 8.0 12.0 0.00 0.00 0.00 28 1025.1
20180722184602 74 28 2.0 6.0 0.00 0.00 0.00 28 1025.1
20180722184101 75 58 6.0 10.0 0.00 0.00 0.00 26 1025.1
20180722183601 74 33 0.0 3.0 0.00 0.00 0.00 30 1025.0
20180722183102 73 52 0.0 9.0 0.00 0.00 0.00 30 1025.3
20180722181601 73 37 2.0 6.0 0.00 0.00 0.00 30 1025.1
20180722181101 72 73 0.0 2.0 0.00 0.00 0.00 31 1024.8
20180722180601 72 72 3.0 10.0 0.00 0.00 0.00 30 1024.9
20180722180102 73 37 2.0 12.0 0.00 0.00 0.00 31 1024.8
20180722174601 72 36 0.0 0.0 0.00 0.00 0.00 31 1024.7
20180722174101 71 36 0.0 5.0 0.00 0.00 0.00 29 1025.0
20180722173602 70 74 1.0 5.0 0.00 0.00 0.00 30 1025.0
20180722173101 70 73 6.0 10.0 0.00 0.00 0.00 31 1025.0
20180722171601 72 35 0.0 5.0 0.00 0.00 0.00 31 1024.7
20180722171102 71 34 5.0 8.0 0.00 0.00 0.00 30 1024.5
20180722170601 71 87 1.0 6.0 0.00 0.00 0.00 29 1024.4
20180722170101 70 99 0.0 7.0 0.00 0.00 0.00 30 1024.4
20180722164601 69 128 0.0 5.0 0.00 0.00 0.00 29 1024.8
20180722164102 69 128 1.0 5.0 0.00 0.00 0.00 30 1024.7
20180722163601 69 127 2.0 5.0 0.00 0.00 0.00 30 1024.7
20180722163101 69 129 0.0 7.0 0.00 0.00 0.00 31 1024.7
20180722161601 69 137 0.0 5.0 0.00 0.00 0.00 31 1024.6
20180722161101 69 144 0.0 2.0 0.00 0.00 0.00 32 1024.4
20180722160602 69 144 1.0 3.0 0.00 0.00 0.00 32 1024.4
20180722160101 68 144 0.0 3.0 0.00 0.00 0.00 34 1024.4
20180722154601 66 147 1.0 3.0 0.00 0.00 0.00 34 1024.5
20180722154102 66 149 1.0 3.0 0.00 0.00 0.00 36 1024.6
20180722153602 65 149 0.0 3.0 0.00 0.00 0.00 38 1024.8
20180722153102 64 153 0.0 3.0 0.00 0.00 0.00 40 1024.7
20180722151601 64 156 1.0 3.0 0.00 0.00 0.00 41 1024.5
20180722151102 64 157 2.0 3.0 0.00 0.00 0.00 40 1024.0
20180722150601 65 185 1.0 3.0 0.00 0.00 0.00 42 1024.0
20180722150101 65 260 0.0 1.0 0.00 0.00 0.00 43 1023.9
20180722144602 65 260 0.0 0.0 0.00 0.00 0.00 40 1024.0
20180722144101 64 260 0.0 0.0 0.00 0.00 0.00 44 1024.0
20180722143602 63 260 0.0 0.0 0.00 0.00 0.00 46 1024.3
20180722143102 62 260 0.0 0.0 0.00 0.00 0.00 48 1024.2
20180722141601 57 260 0.0 0.0 0.00 0.00 0.00 53 1024.9
20180722141101 56 260 0.0 0.0 0.00 0.00 0.00 53 1024.4
20180722140602 54 260 0.0 0.0 0.00 0.00 0.00 57 1024.6
20180722140102 53 262 0.0 0.0 0.00 0.00 0.00 59 1024.6
20180722134601 50 266 0.0 0.0 0.00 0.00 0.00 60 1025.0
20180722134101 50 265 0.0 0.0 0.00 0.00 0.00 60 1025.0
20180722133601 49 266 0.0 0.0 0.00 0.00 0.00 60 1025.1
20180722133102 49 266 0.0 0.0 0.00 0.00 0.00 60 1025.1
20180722131601 48 266 0.0 0.0 0.00 0.00 0.00 58 1025.1
20180722131101 48 266 0.0 0.0 0.00 0.00 0.00 59 1024.6
20180722130601 47 266 0.0 0.0 0.00 0.00 0.00 60 1024.6
20180722130102 47 266 0.0 0.0 0.00 0.00 0.00 61 1024.5
20180722124602 45 266 0.0 0.0 0.00 0.00 0.00 64 1024.7
20180722124101 45 266 0.0 2.0 0.00 0.00 0.00 63 1024.7
20180722123601 46 266 0.0 0.0 0.00 0.00 0.00 61 1024.7
20180722123101 47 266 0.0 3.0 0.00 0.00 0.00 59 1024.4
20180722121602 46 266 0.0 0.0 0.00 0.00 0.00 61 1024.5
20180722121101 45 266 0.0 0.0 0.00 0.00 0.00 63 1024.5
20180722120601 46 265 0.0 0.0 0.00 0.00 0.00 62 1024.2
20180722120101 47 266 0.0 0.0 0.00 0.00 0.00 60 1024.1
20180722114601 49 266 0.0 0.0 0.00 0.00 0.00 57 1023.8
20180722114102 48 266 0.0 0.0 0.00 0.00 0.00 59 1023.8
20180722113602 47 266 0.0 0.0 0.00 0.00 0.00 60 1024.0
20180722113102 47 266 0.0 0.0 0.00 0.00 0.00 61 1024.1
20180722111602 45 266 0.0 0.0 0.00 0.00 0.00 64 1024.1
20180722111101 45 266 0.0 0.0 0.00 0.00 0.00 64 1024.1
20180722110601 45 266 0.0 0.0 0.00 0.00 0.00 63 1023.8
20180722110101 46 266 0.0 0.0 0.00 0.00 0.00 62 1023.7
20180722104601 47 266 0.0 0.0 0.00 0.00 0.00 61 1023.8
20180722104102 46 266 0.0 0.0 0.00 0.00 0.00 62 1023.7
20180722103602 46 266 0.0 0.0 0.00 0.00 0.00 62 1023.7
20180722103102 46 266 0.0 3.0 0.00 0.00 0.00 61 1023.7
20180722101602 49 268 0.0 0.0 0.00 0.00 0.00 56 1023.4
20180722101101 48 268 0.0 0.0 0.00 0.00 0.00 58 1023.1
20180722100601 47 268 0.0 0.0 0.00 0.00 0.00 60 1023.4
20180722100101 46 268 0.0 0.0 0.00 0.00 0.00 61 1023.4
20180722094603 46 268 0.0 0.0 0.00 0.00 0.00 63 1023.2
20180722094101 45 268 0.0 0.0 0.00 0.00 0.00 63 1023.4
20180722093601 45 268 0.0 1.0 0.00 0.00 0.00 63 1023.4
20180722093101 45 268 0.0 1.0 0.00 0.00 0.00 64 1023.5
20180722091601 45 268 0.0 0.0 0.00 0.00 0.00 63 1023.3
20180722091101 46 268 0.0 0.0 0.00 0.00 0.00 61 1023.5
20180722090601 47 268 0.0 0.0 0.00 0.00 0.00 59 1023.4
20180722090101 48 268 1.0 3.0 0.00 0.00 0.00 55 1023.2
20180722084602 48 268 0.0 1.0 0.00 0.00 0.00 57 1023.3
20180722084102 47 265 0.0 0.0 0.00 0.00 0.00 59 1023.3
20180722083601 47 265 0.0 0.0 0.00 0.00 0.00 60 1023.4
20180722083102 47 265 0.0 0.0 0.00 0.00 0.00 60 1023.4
20180722081602 49 265 0.0 0.0 0.00 0.00 0.00 57 1023.1
20180722081101 48 265 0.0 0.0 0.00 0.00 0.00 58 1023.3
20180722080601 48 265 0.0 0.0 0.00 0.00 0.00 58 1023.3
20180722080102 47 265 0.0 0.0 0.00 0.00 0.00 59 1023.3
20180722074602 47 265 0.0 2.0 0.00 0.00 0.00 60 1023.3
20180722074102 47 337 0.0 0.0 0.00 0.00 0.00 60 1023.4
20180722073602 47 338 0.0 3.0 0.00 0.00 0.00 60 1023.4
20180722073102 48 338 1.0 3.0 0.00 0.00 0.00 59 1023.4